[[{"header":{"parameterUnit":"m.s-1","parameterCategory":1,"la1":30.2991,"la2":30.254,"lo1":-89.0895,"lo2":-89.0444,"dy":0.0017,"dx":0.0017,"nx":28,"ny":28,"refTime":"2023-09-07T09:00:00:Z","depth":0,"parameterNumber":2,"parameterNumberName":"U-component_of_WINDS"},"data":[0,0,0,0,0,0,0,0,0,0,0,0,0,0,0,0,0,0,0,0,0,0,0,0,0,0,0,0,0,0,0,0,0,0,0,0,0,0,0,0,0,0,0,0,0,0,0,0,0,0,0,0,0,0,0,0,0,0,-0.1135,-0.1135,0,-0.1143,-0.1143,-0.1143,-0.112,-0.1119,-0.1118,-0.1118,-0.1129,-0.113,-0.1131,0,0,0,0,0,0,0,0,0,0,0,0,0,-0.1101,-0.1101,-0.1135,-0.1135,-0.1135,-0.1143,-0.1143,-0.1143,-0.112,-0.1119,-0.1118,-0.1117,-0.1129,-0.113,-0.1131,0,0,0,0,0,0,0,0,0,0,0,0,0,-0.1113,-0.1102,-0.1135,-0.1124,-0.1123,-0.1143,-0.1143,-0.1143,-0.112,-0.1119,-0.1118,-0.1117,-0.1128,-0.113,-0.1131,-0.1163,0,0,-0.1136,-0.1137,0,0,0,0,0,0,0,0,-0.1112,-0.1114,-0.1125,-0.1125,-0.1124,-0.1129,-0.1135,-0.115,-0.1121,-0.1121,-0.1118,-0.1116,-0.113,-0.1132,-0.1136,-0.1163,-0.1164,-0.1136,-0.1137,-0.1138,-0.1138,0,0,0,0,0,0,0,-0.1112,-0.1114,-0.1138,-0.1126,-0.1125,-0.112,-0.112,-0.1138,-0.1132,-0.1121,-0.112,-0.1121,-0.113,-0.1134,-0.1136,-0.1164,-0.1136,-0.1137,-0.1138,-0.1139,-0.1219,-0.122,0,0,0,0,0,0,-0.1112,-0.1113,-0.1138,-0.1138,-0.1115,-0.1121,-0.1122,-0.1129,-0.1132,-0.1131,-0.1122,-0.112,-0.1132,-0.1134,-0.1136,-0.1174,-0.1138,-0.1139,-0.114,-0.1218,-0.1219,-0.122,0,0,0,0,0,0,-0.1111,-0.1114,-0.1137,-0.1125,-0.1128,-0.1123,-0.1131,-0.1129,-0.1134,-0.1132,-0.1131,-0.1127,-0.1131,-0.1134,-0.1156,-0.1174,-0.114,-0.1141,-0.1216,-0.1218,-0.122,-0.125,0,0,0,0,0,0,-0.111,-0.1114,-0.1125,-0.1126,-0.1129,-0.1157,-0.1132,-0.113,-0.1136,-0.1134,-0.1137,-0.1137,-0.1131,-0.1154,-0.1158,-0.1175,-0.1142,-0.1215,-0.1217,-0.1219,-0.1247,-0.1252,-0.1257,0,0,0,0,0,-0.1109,-0.1133,-0.1126,-0.1129,-0.1142,-0.1158,-0.116,-0.1152,-0.1138,-0.115,-0.1148,-0.1137,-0.1171,-0.1157,-0.1161,-0.1179,-0.1213,-0.1216,-0.1219,-0.1245,-0.1251,-0.1256,0,0,0,0,0,0,-0.1136,-0.1133,-0.1125,-0.115,-0.1154,-0.1154,-0.1168,-0.1158,-0.1167,-0.1165,-0.1155,-0.1156,-0.1181,-0.1182,-0.1166,-0.121,-0.119,-0.1194,-0.1208,-0.1214,-0.1219,-0.1219,-0.1143,0,0,0,0,0,-0.1144,-0.1156,-0.1154,-0.1176,-0.1179,-0.1173,-0.118,-0.1173,-0.1177,-0.1179,-0.118,-0.1185,-0.1198,-0.1206,-0.1217,-0.1247,-0.1248,-0.1261,-0.1266,-0.127,-0.1274,-0.1291,-0.1298,-0.123,-0.123,-0.123,0,0,-0.1163,-0.1163,-0.1171,-0.1182,-0.1184,-0.1198,-0.1175,-0.119,-0.12,-0.1182,-0.1203,-0.1204,-0.1209,-0.1236,-0.1248,-0.1238,-0.1293,-0.1274,-0.1277,-0.1278,-0.1295,-0.1301,-0.1307,-0.1232,-0.1231,-0.1231,0,0,-0.1203,-0.1204,-0.1223,-0.1226,-0.123,-0.1226,-0.1231,-0.1232,-0.1232,-0.1253,-0.1239,-0.1252,-0.1273,-0.1278,-0.1283,-0.1326,-0.1316,-0.133,-0.1356,-0.1373,-0.1378,-0.1383,-0.14,-0.1406,-0.1334,-0.1334,-0.1334,0,-0.1226,-0.1245,-0.1235,-0.1251,-0.1257,-0.124,-0.126,-0.1264,-0.1271,-0.1276,-0.1265,-0.1291,-0.1294,-0.1322,-0.1332,-0.1337,-0.1343,-0.133,-0.1378,-0.1383,-0.1387,-0.1403,-0.1409,-0.1335,-0.1335,-0.1335,-0.1335,0,-0.1273,-0.1287,-0.1302,-0.131,-0.1317,-0.1335,-0.1329,-0.1337,-0.133,-0.1328,-0.135,-0.1353,-0.1365,-0.1371,-0.1364,-0.1398,-0.1392,-0.1379,-0.136,-0.1396,-0.1411,-0.1416,-0.1338,-0.1337,-0.1337,-0.1336,0,0,-0.1332,-0.1333,-0.1339,-0.1343,-0.1346,-0.1357,-0.1375,-0.1385,-0.1394,-0.14,-0.1416,-0.1434,-0.1422,-0.1429,-0.1422,-0.1437,-0.1473,-0.1423,-0.1423,-0.1433,-0.1513,-0.1523,-0.1531,-0.1466,-0.1467,-0.1468,-0.1513,0,-0.1373,-0.1403,-0.1394,-0.1425,-0.1438,-0.1422,-0.1438,-0.1443,-0.1441,-0.1453,-0.1452,-0.1465,-0.1448,-0.1452,-0.1466,-0.1466,-0.1489,-0.1462,-0.1482,-0.1483,-0.1483,-0.1538,-0.1549,-0.1592,-0.1519,-0.1519,-0.152,0,-0.1425,-0.1433,-0.1464,-0.1466,-0.1472,-0.1486,-0.1496,-0.1507,-0.1512,-0.151,-0.1517,-0.1508,-0.1527,-0.1506,-0.1533,-0.1515,-0.1522,-0.1524,-0.1525,-0.1528,-0.1505,-0.1544,-0.1605,-0.1612,-0.1529,-0.1528,-0.1528,0,-0.1466,-0.1484,-0.1506,-0.1509,-0.1512,-0.1522,-0.1524,-0.1528,-0.1535,-0.1544,-0.1549,-0.156,-0.1567,-0.1576,-0.1571,-0.1556,-0.16,-0.1578,-0.16,-0.16,-0.1611,-0.1611,-0.1676,-0.1613,-0.1613,-0.1613,-0.1613,0,-0.1514,-0.1535,-0.1525,-0.1538,-0.1561,-0.1551,-0.1575,-0.1575,-0.1578,-0.1593,-0.1579,-0.1593,-0.1585,-0.1598,-0.1594,-0.1618,-0.1621,-0.1621,-0.162,-0.1623,-0.1623,-0.1629,-0.1626,-0.1615,-0.1615,-0.1614,-0.1614,0,-0.1565,-0.1559,-0.1581,-0.1582,-0.1582,-0.1599,-0.16,-0.1613,-0.161,-0.1629,-0.1633,-0.1629,-0.1644,-0.164,-0.1656,-0.1654,-0.1685,-0.1679,-0.1683,-0.1682,-0.1705,-0.1703,-0.1777,-0.1787,-0.1717,-0.1718,-0.1718,0,-0.1596,-0.1612,-0.1613,-0.1622,-0.1624,-0.1637,-0.1645,-0.1636,-0.1644,-0.1651,-0.1664,-0.1678,-0.1689,-0.1714,-0.1714,-0.1727,-0.1723,-0.1748,-0.1725,-0.1728,-0.1725,-0.1725,-0.1727,-0.1753,-0.1754,-0.1754,-0.1755,0,-0.1654,-0.165,-0.1661,-0.1671,-0.168,-0.1687,-0.1694,-0.1701,-0.1693,-0.1704,-0.1719,-0.1727,-0.1744,-0.1759,-0.177,-0.1773,-0.1764,-0.1762,-0.1768,-0.1772,-0.1774,-0.1775,-0.1697,-0.176,-0.176,-0.1759,-0.1759,-0.1759,-0.1697,-0.171,-0.1714,-0.1726,-0.173,-0.1737,-0.1749,-0.1748,-0.176,-0.1773,-0.1767,-0.1785,-0.1791,-0.1806,-0.181,-0.1825,-0.1815,-0.1824,-0.1826,-0.1829,-0.1833,-0.177,-0.1827,-0.1827,-0.1826,-0.1826,-0.1826,0,-0.1755,-0.1756,-0.1768,-0.1777,-0.1788,-0.1776,-0.1782,-0.1792,-0.1808,-0.1814,-0.1824,-0.1843,-0.1857,-0.1857,-0.1871,-0.1883,-0.1879,-0.1887,-0.1887,-0.1888,-0.1839,-0.1833,-0.189,-0.189,-0.189,-0.189,-0.189,-0.189,-0.1786,-0.1809,-0.1806,-0.183,-0.1832,-0.1848,-0.1854,-0.186,-0.1865,-0.1885,-0.1897,-0.1896,-0.1901,-0.1915,-0.1928,-0.1928,-0.1934,-0.1944,-0.1943,-0.1898,-0.1891,-0.1885,-0.188,-0.1945,-0.1946,-0.1991,-0.1991,-0.1991]},{"header":{"parameterUnit":"m.s-1","parameterCategory":1,"la1":30.2991,"la2":30.254,"lo1":-89.0895,"lo2":-89.0444,"dy":0.0017,"dx":0.0017,"nx":28,"ny":28,"refTime":"2023-09-07T09:00:00:Z","depth":0,"parameterNumber":3,"parameterNumberName":"V-component_of_WINDS"},"data":[0,0,0,0,0,0,0,0,0,0,0,0,0,0,0,0,0,0,0,0,0,0,0,0,0,0,0,0,0,0,0,0,0,0,0,0,0,0,0,0,0,0,0,0,0,0,0,0,0,0,0,0,0,0,0,0,0,0,3.7572,3.7573,0,3.7594,3.7595,3.7595,3.7576,3.7575,3.7575,3.7574,3.7593,3.7595,3.7596,0,0,0,0,0,0,0,0,0,0,0,0,0,3.7511,3.7512,3.7572,3.7573,3.7573,3.7594,3.7595,3.7595,3.7576,3.7575,3.7574,3.7573,3.7593,3.7595,3.7596,0,0,0,0,0,0,0,0,0,0,0,0,0,3.7536,3.7513,3.7572,3.7566,3.7566,3.7594,3.7595,3.7595,3.7576,3.7575,3.7574,3.7573,3.7593,3.7594,3.7596,3.7631,0,0,3.7602,3.7603,0,0,0,0,0,0,0,0,3.7534,3.7538,3.7567,3.7567,3.7566,3.7581,3.758,3.7607,3.7577,3.7572,3.7574,3.7572,3.759,3.7592,3.7599,3.7632,3.7633,3.7602,3.7603,3.7604,3.7605,0,0,0,0,0,0,0,3.7533,3.7537,3.7581,3.7567,3.7567,3.7561,3.7564,3.7585,3.7587,3.7573,3.7571,3.7574,3.759,3.7597,3.7599,3.7633,3.7602,3.7604,3.7605,3.7606,3.7694,3.7695,0,0,0,0,0,0,3.7532,3.7536,3.758,3.7582,3.7547,3.7563,3.7566,3.7578,3.7587,3.7588,3.7575,3.7573,3.7594,3.7597,3.76,3.764,3.7604,3.7606,3.7607,3.7693,3.7694,3.7696,0,0,0,0,0,0,3.7531,3.7536,3.7579,3.7558,3.7563,3.7566,3.7579,3.7579,3.7586,3.7589,3.7589,3.7582,3.7594,3.7597,3.7623,3.764,3.7607,3.7608,3.7692,3.7693,3.7695,3.7721,0,0,0,0,0,0,3.7529,3.7536,3.755,3.7559,3.7565,3.7604,3.758,3.758,3.759,3.7587,3.7596,3.7596,3.7593,3.7621,3.7625,3.7642,3.761,3.769,3.7692,3.7695,3.7718,3.7723,3.7727,0,0,0,0,0,3.7527,3.7556,3.7551,3.7556,3.7582,3.7605,3.7608,3.7604,3.7591,3.7604,3.7606,3.7596,3.7638,3.7623,3.7628,3.7646,3.7689,3.7692,3.7694,3.7716,3.7722,3.7727,0,0,0,0,0,0,3.7547,3.7557,3.7551,3.7584,3.7594,3.7601,3.7618,3.7611,3.7624,3.7621,3.7615,3.7617,3.7645,3.7648,3.7632,3.768,3.7661,3.7665,3.7676,3.7682,3.7686,3.7684,3.7611,0,0,0,0,0,3.7556,3.7574,3.7581,3.7609,3.7615,3.7616,3.7625,3.7622,3.7631,3.7635,3.7639,3.7648,3.7663,3.7673,3.7687,3.7719,3.772,3.7734,3.7738,3.7742,3.7745,3.7761,3.7767,3.7705,3.7705,3.7705,0,0,3.7573,3.7581,3.7592,3.7614,3.7621,3.7639,3.7619,3.7639,3.7652,3.7638,3.7662,3.7666,3.7675,3.7704,3.7717,3.7708,3.7763,3.7746,3.7749,3.7749,3.7764,3.777,3.7775,3.7707,3.7706,3.7706,0,0,3.7614,3.7622,3.7646,3.7654,3.7665,3.7666,3.7671,3.768,3.7682,3.7707,3.7697,3.7711,3.7738,3.7745,3.7751,3.7795,3.7785,3.78,3.7822,3.7838,3.7843,3.7847,3.7861,3.7866,3.7803,3.7803,3.7803,0,3.7633,3.7661,3.7659,3.7679,3.7688,3.7678,3.7701,3.7708,3.7723,3.7729,3.7719,3.7752,3.7757,3.7787,3.7798,3.7804,3.7809,3.7798,3.7843,3.7847,3.7851,3.7864,3.7869,3.7804,3.7804,3.7804,3.7804,0,3.7684,3.7703,3.7721,3.7736,3.7747,3.7769,3.7769,3.7781,3.7776,3.7778,3.7803,3.7809,3.7824,3.7831,3.7827,3.786,3.7854,3.7844,3.7824,3.7858,3.787,3.7875,3.7807,3.7806,3.7806,3.7805,0,0,3.7736,3.7751,3.7757,3.7764,3.7776,3.779,3.7811,3.7826,3.7835,3.7846,3.7863,3.7886,3.7876,3.7884,3.788,3.7894,3.7926,3.7882,3.7882,3.7888,3.7961,3.7968,3.7974,3.7921,3.7922,3.7922,3.796,0,3.7776,3.7813,3.7811,3.7846,3.7862,3.7853,3.7871,3.788,3.7882,3.7895,3.7897,3.7913,3.79,3.7904,3.7918,3.7919,3.794,3.7917,3.7934,3.7935,3.793,3.798,3.7987,3.8022,3.7965,3.7966,3.7966,0,3.7826,3.784,3.7876,3.7885,3.7892,3.7908,3.7921,3.7936,3.7945,3.7945,3.7954,3.7949,3.7969,3.7951,3.7977,3.7961,3.7969,3.7971,3.7972,3.7972,3.7951,3.7979,3.8033,3.8038,3.7974,3.7973,3.7973,0,3.7859,3.7886,3.7911,3.7917,3.7928,3.794,3.7945,3.7953,3.7962,3.7974,3.798,3.7994,3.8001,3.8011,3.8009,3.7996,3.8035,3.8018,3.8035,3.8035,3.8042,3.8041,3.8095,3.805,3.805,3.8049,3.8049,0,3.7902,3.7924,3.7925,3.794,3.7964,3.7962,3.7986,3.799,3.7997,3.8012,3.8005,3.8018,3.8016,3.8029,3.8028,3.8049,3.8053,3.8052,3.8051,3.8052,3.8052,3.8055,3.8052,3.8051,3.8051,3.805,3.805,0,3.7941,3.7943,3.7969,3.7978,3.7981,3.7998,3.8005,3.8019,3.8021,3.804,3.8044,3.8046,3.8062,3.8061,3.8079,3.8077,3.8103,3.81,3.81,3.8099,3.8115,3.8113,3.8172,3.8179,3.8131,3.8131,3.8132,0,3.7967,3.7984,3.7995,3.8005,3.8011,3.8027,3.8036,3.8035,3.8045,3.8057,3.8069,3.8084,3.8096,3.8121,3.8123,3.8136,3.8132,3.8152,3.8134,3.8134,3.813,3.8129,3.813,3.8155,3.8156,3.8156,3.8157,0,3.8013,3.8013,3.8028,3.8043,3.8054,3.8066,3.8076,3.8084,3.8084,3.8095,3.8111,3.8121,3.8139,3.8153,3.8166,3.817,3.8163,3.8163,3.8167,3.8167,3.8165,3.8164,3.8108,3.8161,3.816,3.816,3.816,3.816,3.8045,3.8059,3.8069,3.8085,3.8093,3.8103,3.8116,3.812,3.8134,3.8149,3.8147,3.8165,3.8173,3.819,3.8195,3.8208,3.8201,3.8207,3.8209,3.821,3.8211,3.8165,3.821,3.821,3.821,3.821,3.821,0,3.8089,3.8095,3.811,3.8125,3.8138,3.8132,3.8143,3.8153,3.8169,3.8178,3.819,3.8208,3.8222,3.8226,3.8239,3.8249,3.8246,3.8252,3.825,3.8251,3.8218,3.8212,3.8254,3.8254,3.8254,3.8254,3.8254,3.8254,3.8113,3.8136,3.8138,3.8164,3.817,3.8188,3.8195,3.8203,3.821,3.8231,3.8243,3.8246,3.8253,3.8266,3.8279,3.8279,3.8284,3.8291,3.829,3.8258,3.8254,3.8249,3.8244,3.8293,3.8293,3.8323,3.8323,3.8323]}]]